GW3894 Weather Reports


time (UTC)temp
C
wind
direction
speed
KPH
gust
KPH
rain 1hr
cm
rain 24hr
cm
rain mn
cm
humidity
%
barometer
mb
20260906145655 25 355 3.2 12.9 0.00 0.00 0.00 79 1016.0
20260906145147 25 255 3.2 12.9 0.00 0.00 0.00 80 1016.0
20260906144641 25 328 3.2 8.0 0.00 0.00 0.00 81 1015.9
20260906144136 25 319 4.8 8.0 0.00 0.00 0.00 81 1015.8
20260906143630 24 287 3.2 9.7 0.00 0.00 0.00 81 1015.8
20260906143124 24 321 3.2 9.7 0.00 0.00 0.00 82 1015.8
20260906142844 24 209 3.2 16.1 0.00 0.00 0.00 82 1015.8
20260906142111 24 298 3.2 16.1 0.00 0.00 0.00 82 1015.8
20260906141606 24 342 3.2 12.9 0.00 0.00 0.00 82 1015.8
20260906141059 24 41 3.2 12.9 0.00 0.00 0.00 83 1015.8
20260906140553 24 316 1.6 8.0 0.00 0.00 0.00 83 1015.7
20260906140048 24 311 3.2 6.4 0.00 0.00 0.00 83 1015.7
20260906135542 24 261 3.2 6.4 0.00 0.00 0.00 83 1015.6
20260906135036 24 338 1.6 6.4 0.00 0.00 0.00 83 1015.7
20260906134530 23 0 1.6 6.4 0.00 0.00 0.00 83 1015.7
20260906134024 23 0 1.6 6.4 0.00 0.00 0.00 83 1015.6
20260906133518 23 0 1.6 6.4 0.00 0.00 0.00 83 1015.6
20260906133012 23 0 1.6 12.9 0.00 0.00 0.00 83 1015.6
20260906132506 23 0 1.6 12.9 0.00 0.00 0.00 84 1015.6
20260906132001 23 0 1.6 9.7 0.00 0.00 0.00 84 1015.6
20260906131453 23 344 1.6 9.7 0.00 0.00 0.00 84 1015.6
20260906130948 23 148 1.6 9.7 0.00 0.00 0.00 84 1015.7
20260906130442 23 178 3.2 9.7 0.00 0.00 0.00 84 1015.7
20260906125936 23 279 1.6 6.4 0.00 0.00 0.00 85 1015.6
20260906125656 23 315 1.6 8.0 0.00 0.00 0.00 85 1015.6
20260906124924 23 252 1.6 8.0 0.00 0.00 0.00 85 1015.6
20260906124418 23 256 1.6 6.4 0.00 0.00 0.00 85 1015.6
20260906123406 22 330 1.6 4.8 0.00 0.00 0.00 85 1015.5
20260906122900 22 329 1.6 6.4 0.00 0.00 0.00 85 1015.4
20260906122355 22 277 1.6 6.4 0.00 0.00 0.00 85 1015.4
20260906122105 22 317 1.6 4.8 0.00 0.00 0.00 85 1015.3
20260906121341 22 325 1.6 9.7 0.00 0.00 0.00 85 1015.3
20260906120835 22 355 1.6 9.7 0.00 0.00 0.00 85 1015.2
20260906120330 22 323 1.6 6.4 0.00 0.00 0.00 85 1015.0
20260906115824 22 328 1.6 6.4 0.00 0.00 0.00 85 1015.0
20260906115536 22 316 0.0 3.2 0.00 0.00 0.00 85 1014.9
20260906114811 22 317 0.0 3.2 0.00 0.00 0.00 85 1014.9
20260906114306 22 302 1.6 4.8 0.00 0.00 0.00 85 1014.9
20260906113759 22 302 1.6 4.8 0.00 0.00 0.00 85 1014.8
20260906113254 23 336 1.6 4.8 0.00 0.00 0.00 85 1014.8
20260906112748 23 328 1.6 4.8 0.00 0.00 0.00 85 1014.7
20260906112242 23 310 0.0 3.2 0.00 0.00 0.00 85 1014.8
20260906111736 23 284 0.0 3.2 0.00 0.00 0.00 85 1014.8
20260906111229 23 286 1.6 3.2 0.00 0.00 0.00 85 1014.7
20260906110723 23 304 1.6 6.4 0.00 0.00 0.00 85 1014.7
20260906110435 23 276 1.6 6.4 0.00 0.00 0.00 84 1014.7
20260906105712 23 335 1.6 4.8 0.00 0.00 0.00 84 1014.6
20260906105206 23 0 0.0 3.2 0.00 0.00 0.00 84 1014.5
20260906104700 23 0 0.0 6.4 0.00 0.00 0.00 85 1014.4
20260906104154 23 327 1.6 6.4 0.00 0.00 0.00 84 1014.5
20260906103647 23 325 1.6 6.4 0.00 0.00 0.00 84 1014.5
20260906103410 23 253 1.6 6.4 0.00 0.00 0.00 84 1014.5
20260906102636 23 336 1.6 6.4 0.00 0.00 0.00 84 1014.4
20260906102136 23 347 1.6 6.4 0.00 0.00 0.00 84 1014.3
20260906101636 24 238 1.6 6.4 0.00 0.00 0.00 84 1014.3
20260906101404 24 315 1.6 4.8 0.00 0.00 0.00 84 1014.3
20260906100636 24 306 1.6 8.0 0.00 0.00 0.00 84 1014.3
20260906100135 24 315 1.6 8.0 0.00 0.00 0.00 84 1014.2
20260906095633 24 312 0.0 4.8 0.00 0.00 0.00 84 1014.2
20260906095132 24 265 0.0 3.2 0.00 0.00 0.00 84 1014.1
20260906094629 24 325 0.0 3.2 0.00 0.00 0.00 84 1014.0
20260906094127 25 321 0.0 3.2 0.00 0.00 0.00 84 1014.1
20260906093626 25 321 1.6 4.8 0.00 0.00 0.00 84 1014.1
20260906093126 25 321 1.6 4.8 0.00 0.00 0.00 83 1014.1
20260906092626 25 222 1.6 4.8 0.00 0.00 0.00 83 1014.0
20260906092122 25 331 3.2 8.0 0.00 0.00 0.00 83 1014.0
20260906091623 25 304 3.2 12.9 0.00 0.00 0.00 83 1014.0
20260906091124 25 303 3.2 12.9 0.00 0.00 0.00 83 1014.0
20260906090621 25 340 1.6 8.0 0.00 0.00 0.00 83 1013.8
20260906090120 25 315 1.6 8.0 0.00 0.00 0.00 83 1013.7
20260906085621 25 324 3.2 8.0 0.00 0.00 0.00 83 1013.7
20260906085115 25 330 3.2 12.9 0.00 0.00 0.00 83 1013.7
20260906084615 25 284 3.2 12.9 0.00 0.00 0.00 83 1013.7
20260906084114 25 309 3.2 11.3 0.00 0.00 0.00 82 1013.7
20260906083615 26 328 3.2 8.0 0.00 0.00 0.00 82 1013.6
20260906083114 26 331 3.2 8.0 0.00 0.00 0.00 82 1013.6
20260906083103 26 323 1.6 6.4 0.00 0.00 0.00 82 1013.5
20260906082115 26 335 1.6 8.0 0.00 0.00 0.00 82 1013.5
20260906081616 26 320 3.2 9.7 0.00 0.00 0.00 82 1013.4
20260906081116 26 331 3.2 9.7 0.00 0.00 0.00 82 1013.4
20260906080610 26 338 3.2 9.7 0.00 0.00 0.00 82 1013.4
20260906080110 26 329 1.6 8.0 0.00 0.00 0.00 82 1013.3
20260906075611 26 329 3.2 9.7 0.00 0.00 0.00 82 1013.4
20260906075112 26 82 3.2 9.7 0.00 0.00 0.00 82 1013.5
20260906075059 26 321 1.6 9.7 0.00 0.00 0.00 82 1013.6
20260906074111 27 345 1.6 9.7 0.00 0.00 0.00 81 1013.6
20260906073812 27 333 1.6 6.4 0.00 0.00 0.00 81 1013.6
20260906073659 27 321 1.6 6.4 0.00 0.00 0.00 81 1013.6
20260906072834 27 279 1.6 6.4 0.00 0.00 0.00 81 1013.6
20260906072105 27 331 1.6 6.4 0.00 0.00 0.00 81 1013.6
20260906071559 27 332 1.6 6.4 0.00 0.00 0.00 80 1013.6
20260906071052 27 336 3.2 8.0 0.00 0.00 0.00 80 1013.6
20260906070807 27 310 3.2 8.0 0.00 0.00 0.00 80 1013.5
20260906070041 27 317 1.6 6.4 0.00 0.00 0.00 79 1013.4
20260906065535 28 336 3.2 8.0 0.00 0.00 0.00 79 1013.4
20260906065251 28 325 3.2 8.0 0.00 0.00 0.00 79 1013.4
20260906064523 28 309 3.2 11.3 0.00 0.00 0.00 79 1013.4
20260906064017 28 74 3.2 11.3 0.00 0.00 0.00 78 1013.5
20260906063511 28 315 3.2 8.0 0.00 0.00 0.00 78 1013.5
20260906063005 28 327 1.6 8.0 0.00 0.00 0.00 78 1013.5
20260906062459 28 313 3.2 8.0 0.00 0.00 0.00 78 1013.4
20260906061956 28 289 3.2 11.3 0.00 0.00 0.00 77 1013.4
20260906061456 28 323 1.6 11.3 0.00 0.00 0.00 77 1013.5
20260906060956 28 330 1.6 4.8 0.00 0.00 0.00 77 1013.5
20260906060452 28 317 1.6 4.8 0.00 0.00 0.00 77 1013.5
20260906055952 28 80 1.6 6.4 0.00 0.00 0.00 77 1013.5
20260906055453 28 297 1.6 6.4 0.00 0.00 0.00 76 1013.5
20260906054954 28 338 1.6 6.4 0.00 0.00 0.00 76 1013.4
20260906054453 28 336 0.0 3.2 0.00 0.00 0.00 76 1013.4
20260906053952 28 235 1.6 6.4 0.00 0.00 0.00 76 1013.4
20260906053448 28 235 1.6 8.0 0.00 0.00 0.00 76 1013.4
20260906052948 28 309 1.6 8.0 0.00 0.00 0.00 75 1013.4
20260906052449 28 308 1.6 4.8 0.00 0.00 0.00 75 1013.4
20260906051947 29 280 1.6 3.2 0.00 0.00 0.00 75 1013.4
20260906051446 29 306 1.6 3.2 0.00 0.00 0.00 75 1013.4
20260906051208 29 306 1.6 3.2 0.00 0.00 0.00 74 1013.4
20260906050444 29 311 0.0 3.2 0.00 0.00 0.00 74 1013.5
20260906045943 29 317 1.6 3.2 0.00 0.00 0.00 74 1013.4
20260906045444 29 294 0.0 3.2 0.00 0.00 0.00 74 1013.3
20260906044937 29 316 0.0 3.2 0.00 0.00 0.00 73 1013.3
20260906044430 29 316 0.0 3.2 0.00 0.00 0.00 73 1013.2
20260906043924 29 312 0.0 6.4 0.00 0.00 0.00 73 1013.2
20260906043418 29 312 0.0 6.4 0.00 0.00 0.00 72 1013.2
20260906042911 29 336 0.0 3.2 0.00 0.00 0.00 72 1013.1
20260906042406 30 308 0.0 3.2 0.00 0.00 0.00 72 1013.0
20260906041900 30 308 0.0 4.8 0.00 0.00 0.00 71 1013.1
20260906041354 30 308 1.6 4.8 0.00 0.00 0.00 71 1013.0
20260906041112 30 309 1.6 4.8 0.00 0.00 0.00 71 1012.8
20260906040559 30 319 1.6 4.8 0.00 0.00 0.00 71 1012.8
20260906040100 30 326 1.6 4.8 0.00 0.00 0.00 71 1012.7
20260906035330 30 311 1.6 4.8 0.00 0.00 0.00 71 1012.8
20260906035029 30 298 0.0 3.2 0.00 0.00 0.00 71 1012.8
20260906034913 30 316 1.6 4.8 0.00 0.00 0.00 71 1012.8
20260906034035 30 319 1.6 4.8 0.00 0.00 0.00 71 1012.8
20260906033306 29 312 1.6 4.8 0.00 0.00 0.00 71 1012.8
20260906032800 29 331 1.6 3.2 0.00 0.00 0.00 72 1012.8
20260906032254 29 333 0.0 3.2 0.00 0.00 0.00 72 1012.7
20260906031747 29 226 0.0 1.6 0.00 0.00 0.00 72 1012.7
20260906031248 29 226 0.0 0.0 0.00 0.00 0.00 71 1012.6
20260906030748 29 226 0.0 0.0 0.00 0.00 0.00 71 1012.5
20260906030247 30 226 0.0 0.0 0.00 0.00 0.00 70 1012.5
20260906025745 30 226 0.0 0.0 0.00 0.00 0.00 70 1012.4
20260906025510 30 226 0.0 1.6 0.00 0.00 0.00 70 1012.4
20260906024746 30 226 0.0 1.6 0.00 0.00 0.00 69 1012.4
20260906024243 30 226 0.0 0.0 0.00 0.00 0.00 68 1012.3
20260906023742 30 226 0.0 1.6 0.00 0.00 0.00 68 1012.2
20260906023459 30 226 0.0 3.2 0.00 0.00 0.00 68 1012.2
20260906022947 30 226 0.0 1.6 0.00 0.00 0.00 67 1012.1
20260906022827 30 226 0.0 3.2 0.00 0.00 0.00 67 1012.1
20260906021739 30 226 0.0 1.6 0.00 0.00 0.00 66 1011.9
20260906021235 30 226 0.0 1.6 0.00 0.00 0.00 66 1011.9
20260906020955 30 226 0.0 1.6 0.00 0.00 0.00 65 1011.8
20260906020237 30 226 0.0 0.0 0.00 0.00 0.00 65 1011.7
20260906015732 31 226 0.0 0.0 0.00 0.00 0.00 64 1011.6
20260906015449 31 226 0.0 1.6 0.00 0.00 0.00 64 1011.5
20260906014731 31 226 0.0 1.6 0.00 0.00 0.00 63 1011.5
20260906014231 31 226 0.0 1.6 0.00 0.00 0.00 63 1011.5
20260906013726 31 226 0.0 1.6 0.00 0.00 0.00 63 1011.4
20260906013220 31 226 0.0 1.6 0.00 0.00 0.00 63 1011.4
20260906012713 31 226 0.0 1.6 0.00 0.00 0.00 62 1011.3
20260906012207 31 226 0.0 4.8 0.00 0.00 0.00 62 1011.2
20260906011701 31 226 0.0 4.8 0.00 0.00 0.00 62 1011.2
20260906011156 32 269 0.0 1.6 0.00 0.00 0.00 61 1011.1
20260906010649 32 269 0.0 1.6 0.00 0.00 0.00 61 1011.1
20260906010144 32 269 0.0 1.6 0.00 0.00 0.00 60 1011.0
20260906005903 32 269 0.0 1.6 0.00 0.00 0.00 59 1011.0
20260906005132 32 269 0.0 3.2 0.00 0.00 0.00 59 1010.9
20260906004626 32 269 0.0 3.2 0.00 0.00 0.00 59 1010.9
20260906004346 32 255 1.6 4.8 0.00 0.00 0.00 57 1010.9
20260906003843 32 217 1.6 4.8 0.00 0.00 0.00 57 1010.9
20260906003120 33 306 1.6 6.4 0.00 0.00 0.00 55 1011.0
20260906002621 33 238 0.0 6.4 0.00 0.00 0.00 54 1011.0
20260906002118 33 267 0.0 4.8 0.00 0.00 0.00 53 1011.0
20260906001615 33 272 0.0 4.8 0.00 0.00 0.00 53 1011.0
20260906001113 33 198 1.6 11.3 0.00 0.00 0.00 52 1011.0
20260906000612 34 325 1.6 11.3 0.00 0.00 0.00 51 1011.1
20260906000111 34 286 0.0 6.4 0.00 0.00 0.00 50 1011.1
20260905235612 34 265 0.0 3.2 0.00 0.00 0.00 50 1011.1
20260905235108 34 263 1.6 9.7 0.00 0.00 0.00 50 1011.0
20260905234608 35 248 1.6 9.7 0.00 0.00 0.00 49 1011.0
20260905234333 35 198 0.0 3.2 0.00 0.00 0.00 50 1011.0
20260905233607 35 198 0.0 4.8 0.00 0.00 0.00 48 1010.9
20260905233104 35 202 1.6 4.8 0.00 0.00 0.00 48 1011.1
20260905232604 35 215 0.0 4.8 0.00 0.00 0.00 47 1011.1
20260905232101 35 211 0.0 3.2 0.00 0.00 0.00 47 1011.1
20260905231601 35 213 0.0 3.2 0.00 0.00 0.00 47 1011.1
20260905231058 35 213 0.0 3.2 0.00 0.00 0.00 47 1011.1
20260905230558 35 213 0.0 1.6 0.00 0.00 0.00 46 1011.1
20260905230057 35 213 0.0 3.2 0.00 0.00 0.00 46 1011.1
20260905225555 35 213 1.6 4.8 0.00 0.00 0.00 46 1011.1
20260905225055 36 216 1.6 4.8 0.00 0.00 0.00 45 1011.1
20260905224554 36 323 1.6 6.4 0.00 0.00 0.00 44 1011.0
20260905224055 36 248 1.6 6.4 0.00 0.00 0.00 44 1011.0
20260905223818 36 346 1.6 8.0 0.00 0.00 0.00 44 1010.8
20260905223055 36 11 3.2 9.7 0.00 0.00 0.00 43 1010.8
20260905222556 36 306 3.2 9.7 0.00 0.00 0.00 42 1010.8
20260905222056 36 246 1.6 9.7 0.00 0.00 0.00 41 1010.9
20260905221552 36 314 1.6 9.7 0.00 0.00 0.00 42 1010.9
20260905221052 37 260 1.6 9.7 0.00 0.00 0.00 41 1010.9
20260905220551 37 232 3.2 8.0 0.00 0.00 0.00 41 1010.9
20260905220052 37 63 3.2 8.0 0.00 0.00 0.00 41 1011.0
20260905215550 37 191 3.2 11.3 0.00 0.00 0.00 41 1011.0
20260905215314 37 318 3.2 11.3 0.00 0.00 0.00 41 1010.9
20260905214552 37 221 3.2 11.3 0.00 0.00 0.00 42 1010.9
20260905214050 37 242 1.6 11.3 0.00 0.00 0.00 40 1010.9
20260905213552 37 315 1.6 8.0 0.00 0.00 0.00 40 1011.0
20260905213045 37 311 3.2 8.0 0.00 0.00 0.00 40 1010.9
20260905212539 37 192 1.6 9.7 0.00 0.00 0.00 41 1010.8
20260905212032 37 301 3.2 9.7 0.00 0.00 0.00 41 1010.8
20260905211525 37 327 3.2 11.3 0.00 0.00 0.00 41 1010.8
20260905211019 37 277 3.2 11.3 0.00 0.00 0.00 41 1010.9
20260905210512 37 293 4.8 9.7 0.00 0.00 0.00 41 1011.1
20260905210006 37 298 4.8 11.3 0.00 0.00 0.00 42 1011.2
20260905205505 37 323 4.8 14.5 0.00 0.00 0.00 44 1011.3
20260905205004 37 325 3.2 14.5 0.00 0.00 0.00 43 1011.4
20260905204732 37 236 3.2 11.3 0.00 0.00 0.00 42 1011.3
20260905204002 37 318 3.2 11.3 0.00 0.00 0.00 41 1011.3
20260905203725 37 15 3.2 11.3 0.00 0.00 0.00 41 1011.3
20260905203001 37 278 3.2 12.9 0.00 0.00 0.00 42 1011.3
20260905202458 37 260 4.8 14.5 0.00 0.00 0.00 42 1011.3
20260905201958 37 323 6.4 16.1 0.00 0.00 0.00 42 1011.4
20260905201949 38 248 6.4 16.1 0.00 0.00 0.00 41 1011.4
20260905200958 38 239 4.8 16.1 0.00 0.00 0.00 40 1011.4
20260905200458 38 205 4.8 17.7 0.00 0.00 0.00 42 1011.5
20260905195959 38 216 4.8 17.7 0.00 0.00 0.00 40 1011.5
20260905195500 39 207 1.6 8.0 0.00 0.00 0.00 37 1011.5
20260905194958 39 173 1.6 8.0 0.00 0.00 0.00 36 1011.4
20260905194456 38 184 3.2 14.5 0.00 0.00 0.00 36 1011.4
20260905193958 38 215 4.8 14.5 0.00 0.00 0.00 37 1011.5
20260905193457 38 217 3.2 11.3 0.00 0.00 0.00 38 1011.6
20260905192951 38 193 3.2 12.9 0.00 0.00 0.00 37 1011.8
20260905192445 38 184 3.2 12.9 0.00 0.00 0.00 36 1011.9
20260905192157 38 229 1.6 9.7 0.00 0.00 0.00 37 1012.0
20260905191433 38 188 3.2 6.4 0.00 0.00 0.00 36 1011.9
20260905191147 38 313 3.2 16.1 0.00 0.00 0.00 37 1012.0
20260905190421 39 213 4.8 16.1 0.00 0.00 0.00 36 1012.0
20260905185915 39 204 4.8 11.3 0.00 0.00 0.00 35 1012.1
20260905185409 39 235 3.2 9.7 0.00 0.00 0.00 37 1012.1
20260905184903 39 212 4.8 9.7 0.00 0.00 0.00 35 1012.2
20260905184357 38 234 3.2 9.7 0.00 0.00 0.00 38 1012.2
20260905183851 38 183 3.2 9.7 0.00 0.00 0.00 38 1012.3
20260905183345 38 168 3.2 8.0 0.00 0.00 0.00 38 1012.4
20260905183108 38 275 3.2 12.9 0.00 0.00 0.00 40 1012.4
20260905182333 38 68 3.2 12.9 0.00 0.00 0.00 37 1012.3
20260905181827 39 184 3.2 9.7 0.00 0.00 0.00 38 1012.4
20260905181321 39 244 3.2 12.9 0.00 0.00 0.00 38 1012.5
20260905180815 39 187 3.2 12.9 0.00 0.00 0.00 39 1012.6
20260905180309 39 293 1.6 8.0 0.00 0.00 0.00 40 1012.6
20260905175803 39 263 3.2 9.7 0.00 0.00 0.00 39 1012.7
20260905175513 39 184 4.8 11.3 0.00 0.00 0.00 39 1012.8
20260905175013 39 184 3.2 11.3 0.00 0.00 0.00 41 1012.8
20260905174245 38 178 3.2 9.7 0.00 0.00 0.00 41 1012.8
20260905173739 38 283 3.2 9.7 0.00 0.00 0.00 40 1012.8
20260905173233 38 190 3.2 9.7 0.00 0.00 0.00 42 1013.0
20260905172727 38 166 3.2 9.7 0.00 0.00 0.00 41 1013.0
20260905172221 38 198 3.2 9.7 0.00 0.00 0.00 43 1013.0
20260905171715 38 208 1.6 8.0 0.00 0.00 0.00 45 1013.1
20260905171209 37 197 3.2 9.7 0.00 0.00 0.00 45 1013.2
20260905170703 37 184 3.2 9.7 0.00 0.00 0.00 44 1013.3
20260905170157 37 209 3.2 8.0 0.00 0.00 0.00 45 1013.4
20260905165651 37 296 3.2 11.3 0.00 0.00 0.00 45 1013.4
20260905165145 37 213 3.2 11.3 0.00 0.00 0.00 43 1013.5
20260905164639 37 192 1.6 8.0 0.00 0.00 0.00 46 1013.5
20260905164353 38 223 3.2 9.7 0.00 0.00 0.00 43 1013.5
20260905163627 38 268 3.2 9.7 0.00 0.00 0.00 44 1013.5
20260905163121 37 201 3.2 9.7 0.00 0.00 0.00 44 1013.6
20260905162618 37 169 3.2 11.3 0.00 0.00 0.00 45 1013.6
20260905162336 37 279 3.2 11.3 0.00 0.00 0.00 44 1013.7
20260905161617 37 231 1.6 6.4 0.00 0.00 0.00 44 1013.7
20260905161118 37 206 1.6 6.4 0.00 0.00 0.00 46 1013.7
20260905160839 36 257 1.6 6.4 0.00 0.00 0.00 47 1013.7
20260905160338 36 212 1.6 6.4 0.00 0.00 0.00 49 1013.8
20260905155613 36 184 1.6 6.4 0.00 0.00 0.00 50 1013.7
20260905155112 36 161 1.6 6.4 0.00 0.00 0.00 50 1013.8
20260905155105 35 208 1.6 8.0 0.00 0.00 0.00 52 1013.7
20260905154110 35 189 1.6 8.0 0.00 0.00 0.00 52 1013.7
20260905153608 35 161 1.6 6.4 0.00 0.00 0.00 52 1013.8
20260905153108 35 183 1.6 6.4 0.00 0.00 0.00 52 1013.8
20260905152609 35 177 1.6 4.8 0.00 0.00 0.00 53 1013.8
20260905152107 35 157 1.6 6.4 0.00 0.00 0.00 55 1013.8
20260905151606 34 125 1.6 6.4 0.00 0.00 0.00 56 1013.8
20260905151105 33 53 3.2 6.4 0.00 0.00 0.00 58 1013.8
20260905150607 33 215 1.6 6.4 0.00 0.00 0.00 59 1013.8